Location: Gacki
(50.1500°N, 19.8167°E)
Time: 19:21:48
(UTC+00:00)

Daily predictions for brighter satellites

Satellite Brightness Start Highest point End
(mag) Time Altitude Azimuth Time Altitude Azimuth Time Altitude Azimuth
Cosmos 2322 4.3 16:58:01 10° S 17:03:14 37° ESE 17:08:28 10° NE
Cosmos 1844 Rocket 3.0 16:58:36 10° NNW 17:04:11 74° WSW 17:09:43 10° SSE
CZ-2C R/B 3.7 16:58:59 10° S 17:04:34 67° WSW 17:09:55 10° NNW
CSL-04 Rocket 4.0 16:59:48 10° SE 17:05:01 45° ENE 17:10:13 10° N
Cosmos 1703 Rocket 3.7 17:00:52 10° N 17:05:11 53° ENE 17:09:26 10° SSE
USA 308 3.3 17:01:21 10° WNW 17:05:34 53° N 17:09:45 10° E
Cosmos 1666 3.3 17:04:19 10° SSE 17:07:40 32° E 17:11:02 10° NNE
Cosmos 1777 Rocket 4.0 17:05:03 10° NNW 17:10:17 63° ENE 17:15:26 10° SE
BREEZE-M DEB (TANK) 1.7 17:09:25 10° W 17:11:38 81° S 17:15:47 10° E
Okean-O 2.6 17:07:37 10° SSE 17:12:01 72° ENE 17:16:28 10° N
CSL-04 Debris 4.3 17:07:12 10° SE 17:12:30 55° ENE 17:17:51 10° N
H-2A R/B 2.2 17:07:39 10° SSE 17:13:07 85° ENE 17:18:34 10° NNW
Cosmos 1933 Rocket 3.5 17:09:33 10° S 17:13:53 67° E 17:18:16 10° NNE
Cosmos 2237 4.3 17:08:47 10° SSW 17:14:31 86° WNW 17:20:19 10° NNE
CSL-04 DEB 4.5 17:12:14 10° NNE 17:16:15 85° WNW 17:20:19 10° SSW
Ariane Rocket 4.2 17:16:23 10° ESE 17:20:22 24° ENE 17:24:21 10° N
SJ-6B 4.2 17:17:58 10° ESE 17:21:05 22° ENE 17:24:10 10° NNE
Meteor 1-11 Rocket 4.2 17:18:42 10° SSE 17:23:50 37° E 17:28:55 10° NNE
Meteor 1-14 Rocket 4.2 17:19:40 10° S 17:25:14 88° WNW 17:30:48 10° NNE
Cosmos 1500 3.4 17:23:25 10° SSW 17:27:08 74° W 17:30:54 10° N
Cosmos 2360 Rocket 2.4 17:21:52 10° SSW 17:27:32 81° WNW 17:33:15 10° NNE
SJ-11-01 4.4 17:23:12 10° SSE 17:27:53 82° WSW 17:32:38 10° NNW
USA 186 2.7 17:28:02 15° ESE 17:29:13 20° ENE 17:31:15 10° NNE
Okean 1-7 3.0 17:25:17 10° N 17:29:41 86° E 17:34:00 10° S
Cosmos 1943 Rocket 4.0 17:27:06 10° N 17:30:23 15° NNE 17:33:40 10° ENE
OBJECT-B 2.4 17:29:06 14° E 17:30:27 18° ENE 17:32:41 10° NNE
Cosmos 1727 Rocket 4.4 17:25:01 10° N 17:30:50 41° ENE 17:36:40 10° SE
Cosmos 2341 Rocket 4.0 17:24:53 10° S 17:31:08 70° E 17:37:21 10° NNE
Meteor 1-13 Rocket 4.3 17:25:17 10° N 17:31:13 66° ENE 17:37:01 10° SSE
PSLV R/B 3.8 17:27:08 10° NNE 17:31:13 72° ESE 17:35:15 10° S
YAOGAN 1 3.0 17:29:04 10° S 17:33:22 68° WSW 17:37:42 10° NNW
Cosmos 2333 4.2 17:28:25 10° SSW 17:34:01 68° ESE 17:39:44 10° NNE
Cosmos 2278 Rocket 2.6 17:29:35 10° NNW 17:35:03 46° NE 17:40:17 11° SE
Cosmos 2237 Rocket 3.5 17:31:28 10° SE 17:35:14 18° E 17:38:59 10° ENE
SAR-Lupe-4 3.5 17:34:06 10° NNE 17:37:41 61° ESE 17:41:13 10° S
SJ 16-02 1.7 17:33:52 10° NNW 17:38:07 44° ENE 17:42:16 10° SE
FALCON 9 DEB 3.0 17:36:05 10° WNW 17:39:16 75° SSW 17:41:32 18° ESE
DMSP B5D1-3 4.5 17:35:28 10° NNE 17:40:39 73° ESE 17:45:49 10° S
Meteor 1-5 Rocket 4.1 17:36:01 10° S 17:41:27 84° E 17:47:06 10° NNE
Cosmos 2218 Rocket 4.1 17:35:43 10° SSE 17:41:57 57° E 17:48:11 10° NNE
COSMO-SKYMED 1 4.1 17:38:26 10° N 17:42:30 40° WNW 17:46:33 10° SW
Okean 3 3.5 17:38:59 10° N 17:43:14 62° ENE 17:47:28 10° SSE
SL-4 R/B 3.1 17:41:02 10° W 17:44:12 31° SW 17:47:16 10° SSE
Cosmos 1544 4.3 17:41:29 10° SE 17:44:18 21° E 17:47:09 10° NE
SeaSat 1 3.0 17:40:30 10° NE 17:45:02 35° ESE 17:49:33 10° S
Cosmos 1536 3.1 17:41:23 10° SSE 17:45:08 41° E 17:48:54 10° NNE
Cosmos 2242 Rocket 4.4 17:42:39 10° NNW 17:47:03 55° W 17:51:23 10° S
FALCON 9 DEB 3.2 17:44:02 10° WNW 17:47:11 61° SSW 17:49:12 20° SE
USA 234 4.3 17:45:46 15° E 17:49:20 23° SE 17:54:18 10° S
MetOp-A 4.2 17:44:29 10° SE 17:49:43 57° ENE 17:54:59 10° N
Cosmos 1959 Rocket 4.4 17:45:15 10° S 17:51:15 63° E 17:57:20 10° NNE
Gbstr 26 Del rocket 3.3 17:47:26 10° WNW 17:51:58 86° NNE 17:55:46 20° ESE
Cosmos 2333 Rocket 2.1 17:49:13 10° SSW 17:54:54 78° ESE 18:00:40 10° NNE
Resurs 01 Rocket 3.0 17:54:08 19° ENE 17:55:00 20° ENE 17:58:11 10° NNE
USA 238 DEB 4.1 17:49:37 10° S 17:55:28 36° ESE 18:01:34 10° NE
USA 238 4.1 17:49:45 10° S 17:55:35 35° ESE 18:01:39 10° NE
Abrixas rocket 3.4 17:53:36 10° W 17:55:39 23° SSW 17:56:40 18° SSE
Cosmos 1937 Rocket 4.5 17:53:02 10° N 17:57:31 29° NE 17:59:38 22° E
SAR-Lupe-1 4.2 17:54:29 10° NNE 17:58:06 76° WNW 18:01:40 10° SSW
Helios 1A Rocket 3.5 17:56:06 10° S 18:00:04 58° WSW 18:04:05 10° NNW
Cosmos 2322 Rocket 3.9 17:56:28 10° WSW 18:01:30 33° NW 18:06:35 10° NNE
Lacrosse 4 Rocket 1.5 17:57:50 10° SSW 18:02:16 89° WNW 18:06:48 10° NE
GP-B 3.6 17:58:02 10° S 18:02:25 62° W 18:06:51 10° N
ARGOS 4.0 17:59:00 10° S 18:04:19 54° W 18:09:40 10° NNW
ERBS 4.0 18:05:16 10° NW 18:08:02 24° N 18:09:27 18° NE
IRS-1A Rocket 4.3 18:03:25 12° SE 18:08:33 57° ENE 18:13:57 10° N
CZ-4B R/B 4.4 18:07:00 10° NNW 18:09:00 16° WNW 18:11:01 10° WSW
Cosmos 1869 Rocket 3.6 18:04:51 10° SSW 18:09:14 80° WNW 18:13:41 10° N
Resurs 1-3 4.1 18:08:04 27° ESE 18:09:44 38° ENE 18:13:49 10° N
CZ-4 R/B 3.9 18:06:46 10° SSW 18:09:57 23° W 18:13:11 10° NW
Cosmos 1842 4.5 18:06:53 10° NNE 18:09:54 24° ENE 18:09:54 24° ENE
Cosmos 2219 Rocket 2.1 18:05:48 10° SSW 18:11:23 89° SE 18:17:04 10° NNE
ERS-2 3.1 18:10:09 10° N 18:13:43 49° WNW 18:17:15 10° SW
CZ-2C R/B 2.7 18:08:38 10° NNE 18:14:07 82° WNW 18:19:26 10° SSW
Cosmos 1689 Rocket 3.9 18:12:42 10° N 18:15:20 32° WNW 18:17:57 10° SW
FALCON 9 DEB 4.0 18:12:48 10° WNW 18:15:46 37° SSW 18:16:47 28° S
Cosmos 1238 Rocket 2.4 18:13:25 10° S 18:17:24 71° E 18:20:47 10° NNE
Cosmos 1378 3.4 18:14:41 10° NNW 18:18:24 68° W 18:22:05 10° S
Cosmos 1980 4.0 18:14:17 10° S 18:19:30 40° ESE 18:24:45 10° NE
USA 305 2.8 18:16:53 10° WNW 18:21:11 89° SSW 18:22:40 40° ESE
NOSS 3-2 (A) 3.4 18:18:33 10° SSW 18:24:05 59° SE 18:30:29 10° NE
CREW DRAGON DEMO-1 DEB 3.4 18:21:50 10° SW 18:23:59 40° SSW 18:23:59 40° SSW
FALCON 9 DEB 3.9 18:22:15 10° WNW 18:25:14 37° SSW 18:25:51 33° S
COSMOS 2428 2.7 18:20:28 10° SSW 18:26:09 85° WNW 18:31:54 10° NNE
Cosmos 1733 Rocket 3.1 18:22:16 10° S 18:26:29 54° E 18:30:47 10° NNE
Meteor 2-20 4.5 18:27:54 10° NNW 18:34:03 84° W 18:40:12 10° S
USA 307 2.8 18:30:39 10° WNW 18:34:57 80° SSW 18:35:52 54° SE
Cosmos 2369 Rocket 3.6 18:30:57 10° N 18:35:10 21° NE 18:36:12 20° NE
CENTAUR R/B 2.6 18:30:07 10° SSW 18:35:47 50° ESE 18:42:32 10° NE
USA 306 2.9 18:31:55 10° WNW 18:36:12 77° SSW 18:37:06 54° SE
Cosmos 1898 Rocket 3.4 18:32:03 10° NNW 18:37:18 70° ENE 18:39:11 40° SE
NOSS 0 Rocket 3.8 18:31:26 10° SSW 18:37:31 65° ESE 18:43:37 10° NE
ATLAS CENTAUR R/B 3.6 18:35:30 10° WNW 18:38:11 19° NNW 18:40:55 10° NNE
Cosmos 1743 2.6 18:37:15 10° S 18:41:08 86° E 18:45:03 10° N
USA 308 2.9 18:41:28 10° WNW 18:45:44 71° SSW 18:46:15 62° SSE
ASTEX 1 3.7 18:45:52 10° N 18:50:44 67° W 18:55:34 10° SSW
Cosmos 1674 Rocket 3.4 18:50:17 10° N 18:54:38 87° WSW 18:55:15 65° S
Landsat 7 4.2 18:55:43 46° NE 18:55:43 46° NE 18:59:54 10° N
SJ-6B 4.0 18:52:44 18° SSW 18:55:29 43° W 18:59:20 10° NNW
Cosmos 372 Rocket 4.4 18:50:44 10° NNW 18:55:37 43° NE 18:55:37 43° NE
Cosmos 990 Rocket 4.1 18:52:35 10° NNW 18:57:45 71° WSW 18:59:41 39° S
Ariane Rocket 3.4 18:55:34 21° S 18:58:57 62° WSW 19:04:01 10° NNW
USA 186 4.2 18:59:36 15° WSW 19:00:02 16° W 19:01:45 10° NW
ARIANE 5 R/B 4.0 19:01:45 27° NNE 19:01:45 27° NNE 19:04:23 10° N
Cosmos 2297 3.8 18:56:27 10° NNW 19:02:07 56° NE 19:02:40 54° ENE
OBJECT-B 2.4 19:02:09 32° WSW 19:02:29 33° W 19:05:27 10° NNW
Cosmos 1763 Rocket 3.4 18:58:02 10° SSW 19:03:19 69° ESE 19:08:37 10° NNE
MetOp-B 4.1 19:04:19 59° E 19:04:31 60° ENE 19:09:49 10° N
NOSS 3-2 (C) 3.2 19:00:11 10° SSW 19:05:48 66° SE 19:08:11 38° ENE
Okean 2 4.0 19:01:48 10° N 19:04:48 47° N 19:04:48 47° N
Cosmos 1378 Rocket 3.6 19:04:39 10° NNW 19:09:07 75° W 19:09:21 72° SW
Cosmos 468 Rocket 3.9 19:09:42 10° SSW 19:15:01 88° ESE 19:20:20 10° NNE
Cosmos 1943 Rocket 2.5 19:10:03 10° NNW 19:15:25 50° NE 19:15:25 50° NE
SJ 16-02 3.5 19:12:55 10° NW 19:16:27 24° W 19:19:18 13° SSW
Cosmos 1535 Rocket 4.4 19:16:24 62° SE 19:17:08 67° E 19:23:27 10° NNE
Cosmos 1821 Rocket 4.1 19:10:59 10° SSW 19:17:10 72° WNW 19:23:19 10° N
Cosmos 858 Rocket 4.4 19:13:14 10° NNW 19:18:27 79° WSW 19:18:47 75° SSW
Cosmos 2237 Rocket 2.1 19:12:50 10° SSW 19:18:33 85° WNW 19:24:18 10° NNE
Cosmos 2278 Rocket 3.5 19:13:54 10° NW 19:19:03 37° WSW 19:22:11 21° SSW
Meteor 1-21 4.2 19:16:31 10° NNW 19:22:16 85° W 19:23:05 67° S
SeaSat 1 3.5 19:17:56 10° NNE 19:22:38 44° NW 19:27:18 10° WSW
SPOT 3 Rocket 3.7 19:24:25 64° SSW 19:25:01 71° WSW 19:30:17 10° NNW
Cosmos 1934 Rocket 3.8 19:30:07 69° S 19:30:56 87° E 19:37:09 10° N
Resurs 01 Rocket 2.3 19:31:41 53° WNW 19:31:41 53° WNW 19:35:29 10° NNW
SPOT 1/Viking Rocket 3.9 19:33:55 58° N 19:33:55 58° N 19:38:08 10° NNW
USA 234 3.1 19:33:09 69° SE 19:33:09 69° SE 19:39:40 10° SW
USA 245 4.3 19:35:05 80° ENE 19:35:05 80° ENE 19:41:24 10° NNW
Gbstr 26 Del rocket 4.4 19:34:06 10° WNW 19:38:19 42° SW 19:38:19 42° SW
Cosmos 2123 Rocket 4.2 19:33:32 10° NNW 19:39:45 69° W 19:41:02 54° SSW
Cosmos 1937 Rocket 4.0 19:34:46 10° NNW 19:39:46 52° WSW 19:39:49 52° WSW
Cosmos 2333 Rocket 4.2 19:35:04 10° W 19:39:49 26° NW 19:44:37 10° NNE
Lacrosse 4 Rocket 4.1 19:38:18 10° W 19:41:37 20° NW 19:44:57 10° NNE
USA 238 DEB 3.9 19:39:27 10° WSW 19:46:02 66° NW 19:53:00 10° NE
USA 238 3.9 19:39:33 10° WSW 19:46:08 66° NW 19:53:07 10° NE
Cosmos 2219 Rocket 4.4 19:51:45 10° W 19:56:08 23° NW 20:00:34 10° NNE
Terra 3.8 20:00:53 22° N 20:00:53 22° N 20:02:42 10° N
ERS-1 Rocket 4.3 20:03:06 33° N 20:03:06 33° N 20:05:53 10° N
Cosmos 1605 Rocket 4.4 20:15:57 61° NNW 20:15:57 61° NNW 20:21:22 10° N
NOSS 3-2 (A) 4.5 20:09:33 10° WSW 20:15:13 43° NNW 20:21:48 10° NE
Cosmos 2369 Rocket 3.2 20:14:26 10° NNW 20:18:00 41° NNW 20:18:00 41° NNW
CENTAUR R/B 3.3 20:20:25 10° WSW 20:26:30 51° NNW 20:33:49 10° NE
BREEZE M DEB (TANK) 4.4 19:57:25 10° W 20:28:52 87° S 20:29:33 79° ESE
USA 281 4.1 20:54:08 44° N 20:54:08 44° N 20:58:31 10° NNW
Cosmos 1943 Rocket 4.1 20:54:08 10° NW 20:56:58 25° WNW 20:56:58 25° WNW
Cosmos 2237 Rocket 4.4 20:59:06 10° W 21:03:29 22° NW 21:07:53 10° NNE
CENTAUR R/B 4.4 22:12:56 10° WNW 22:18:56 30° N 22:25:48 10° NE
ATLAS 3B R/B 4.3 23:35:00 27° N 23:35:00 27° N 23:39:44 10° NE
